Weather History for North Las Vegas, NV

Change the Weather History Date:

Wednesday, October 3, 2012

  Actual Average Record
Temperature  
Mean Temperature 82 °F -  
Max Temperature 98 °F 93 °F 101 °F (1952)
Min Temperature 68 °F 63 °F 42 °F (1955)
Cooling Degree Days 18    
Growing Degree Days 32 (Base 50)    
Moisture  
Dew Point 29 °F    
Average Humidity 16    
Maximum Humidity 29    
Minimum Humidity 8    
Precipitation  
Precipitation 0.00 in - - ()
Sea Level Pressure  
Sea Level Pressure 29.85 in    
Wind  
Wind Speed 6 mph (West)    
Max Wind Speed 17 mph    
Max Gust Speed 24 mph    
Visibility 10 miles    
Events      
Averages and records for this station are not official NWS values.
T = Trace of Precipitation, MM = Missing Value Source: NWS Daily Summary

Daily Weather History Graph

Daily Weather History Graph

Search for Another Location

Airport:

Trip Planner

Search our weather history database for the weather conditions in past years. The results will help you decide how hot, cold, wet, or windy it might be!

Date:

Astronomy

Oct. 03, 2012 Rise Set
Actual Time 6:38 AM PDT 6:20 PM PDT
Civil Twilight 6:12 AM PDT 6:46 PM PDT
Nautical Twilight 5:42 AM PDT 7:15 PM PDT
Astronomical Twilight 5:12 AM PDT 7:45 PM PDT
Moon 8:23 PM PDT (10/3) 9:57 AM PDT (10/3)
Length of Visible Light 12h 33m
Length of Day
11h 42m
Waning Gibbous, 88% of the Moon is Illuminated
Oct 3
Waning Gibbous
Oct 8
Last Quarter
Oct 15
New
Oct 21
First Quarter
Oct 29
Full

Hourly Weather History & Observations

Time (PDT) Temp. Dew Point Humidity Pressure Visibility Wind Dir Wind Speed Gust Speed Precip Events Conditions
12:53 AM 73.9 °F 30.9 °F 21% 29.82 in 10.0 mi North 5.8 mph - N/A   Clear
1:53 AM 72.0 °F 35.1 °F 26% 29.83 in 10.0 mi NW 3.5 mph - N/A   Clear
2:53 AM 71.1 °F 34.0 °F 26% 29.83 in 10.0 mi NNW 6.9 mph - N/A   Clear
3:53 AM 70.0 °F 36.0 °F 29% 29.83 in 10.0 mi Calm Calm - N/A   Clear
4:53 AM 68.0 °F 34.0 °F 28% 29.84 in 10.0 mi NW 3.5 mph - N/A   Clear
5:53 AM 68.0 °F 34.0 °F 28% 29.85 in 10.0 mi NW 6.9 mph - N/A   Clear
6:53 AM 68.0 °F 32.0 °F 26% 29.87 in 10.0 mi WNW 5.8 mph - N/A   Clear
7:53 AM 73.0 °F 28.9 °F 20% 29.89 in 10.0 mi North 6.9 mph - N/A   Clear
8:53 AM 79.0 °F 30.9 °F 17% 29.91 in 10.0 mi North 3.5 mph - N/A   Clear
9:53 AM 82.9 °F 27.0 °F 13% 29.92 in 10.0 mi ENE 3.5 mph - N/A   Clear
10:53 AM 88.0 °F 27.0 °F 11% 29.91 in 10.0 mi Calm Calm - N/A   Clear
11:53 AM 89.1 °F 28.0 °F 11% 29.90 in 10.0 mi Calm Calm - N/A   Clear
12:53 PM 91.0 °F 28.0 °F 10% 29.87 in 10.0 mi Calm Calm - N/A   Clear
1:53 PM 93.0 °F 30.0 °F 11% 29.84 in 10.0 mi SSE 4.6 mph - N/A   Clear
2:53 PM 97.0 °F 27.0 °F 8% 29.82 in 10.0 mi WSW 10.4 mph 19.6 mph N/A   Clear
3:53 PM 97.0 °F 26.1 °F 8% 29.81 in 10.0 mi SW 13.8 mph 23.0 mph N/A   Clear
4:53 PM 96.1 °F 24.1 °F 8% 29.82 in 10.0 mi SW 17.3 mph - N/A   Clear
5:53 PM 93.9 °F 26.1 °F 9% 29.81 in 10.0 mi SW 16.1 mph 24.2 mph N/A   Clear
6:53 PM 91.0 °F 27.0 °F 10% 29.83 in 10.0 mi WSW 11.5 mph - N/A   Clear
7:53 PM 88.0 °F 28.0 °F 12% 29.83 in 10.0 mi SSW 9.2 mph - N/A   Clear
8:53 PM 86.0 °F 28.0 °F 12% 29.84 in 10.0 mi South 8.1 mph - N/A   Clear
9:53 PM 86.0 °F 25.0 °F 11% 29.85 in 10.0 mi SW 8.1 mph - N/A   Clear
10:53 PM 80.1 °F 30.0 °F 16% 29.87 in 10.0 mi WNW 8.1 mph - N/A   Clear
11:53 PM 82.0 °F 30.0 °F 15% 29.87 in 10.0 mi SSW 11.5 mph - N/A   Clear